| time (UTC) | temp F | wind direction | speed MPH | gust MPH | rain 1hr in | rain 24hr in | rain mn in | humidity % | barometer mb |
| 20260508023440 | 51 | 304 | 3.0 | 11.0 | 0.00 | 0.24 | 0.14 | 97 | 1014.3 |
| 20260508023006 | 50 | 298 | 4.0 | 11.0 | 0.00 | 0.24 | 0.14 | 97 | 1014.2 |
| 20260508022926 | 51 | 336 | 2.0 | 11.0 | 0.00 | 0.24 | 0.14 | 97 | 1014.2 |
| 20260508022415 | 51 | 302 | 2.0 | 10.0 | 0.00 | 0.24 | 0.14 | 97 | 1014.2 |
| 20260508021857 | 51 | 309 | 2.0 | 10.0 | 0.00 | 0.24 | 0.14 | 97 | 1014.2 |
| 20260508021521 | 50 | 316 | 1.0 | 9.0 | 0.00 | 0.24 | 0.14 | 97 | 1014.0 |
| 20260508021344 | 51 | 317 | 3.0 | 9.0 | 0.00 | 0.24 | 0.14 | 96 | 1014.1 |
| 20260508020832 | 51 | 284 | 2.0 | 9.0 | 0.00 | 0.24 | 0.14 | 97 | 1014.1 |
| 20260508020057 | 50 | 328 | 1.0 | 8.0 | 0.01 | 0.24 | 0.14 | 97 | 1013.9 |
| 20260508015811 | 51 | 319 | 2.0 | 9.0 | 0.01 | 0.24 | 0.14 | 97 | 1014.1 |
| 20260508015300 | 51 | 11 | 2.0 | 9.0 | 0.01 | 0.24 | 0.14 | 97 | 1014.0 |
| 20260508014746 | 51 | 355 | 1.0 | 4.0 | 0.01 | 0.24 | 0.14 | 97 | 1014.0 |
| 20260508014518 | 50 | 296 | 0.0 | 4.0 | 0.01 | 0.24 | 0.14 | 96 | 1013.8 |
| 20260508013721 | 51 | 337 | 1.0 | 4.0 | 0.01 | 0.24 | 0.14 | 96 | 1013.9 |
| 20260508013212 | 51 | 283 | 1.0 | 4.0 | 0.01 | 0.24 | 0.14 | 96 | 1013.9 |
| 20260508013053 | 50 | 282 | 0.0 | 4.0 | 0.01 | 0.24 | 0.14 | 97 | 1013.8 |
| 20260508012146 | 51 | 327 | 1.0 | 4.0 | 0.01 | 0.24 | 0.14 | 97 | 1014.0 |
| 20260508011633 | 51 | 342 | 1.0 | 7.0 | 0.02 | 0.24 | 0.14 | 97 | 1014.0 |
| 20260508011504 | 50 | 342 | 0.0 | 6.0 | 0.02 | 0.24 | 0.14 | 97 | 1013.8 |
| 20260508011121 | 51 | 299 | 2.0 | 7.0 | 0.02 | 0.24 | 0.14 | 96 | 1014.0 |
| 20260508010605 | 51 | 331 | 2.0 | 5.0 | 0.04 | 0.24 | 0.14 | 96 | 1013.9 |
| 20260508010104 | 51 | 315 | 2.0 | 8.0 | 0.04 | 0.24 | 0.13 | 96 | 1014.0 |
| 20260508010040 | 51 | 315 | 1.0 | 8.0 | 0.04 | 0.24 | 0.13 | 96 | 1013.8 |
| 20260508004544 | 51 | 355 | 2.0 | 8.0 | 0.13 | 0.24 | 0.13 | 96 | 1013.9 |
| 20260508004527 | 51 | 355 | 1.0 | 8.0 | 0.12 | 0.24 | 0.13 | 96 | 1013.8 |
| 20260508004035 | 51 | 319 | 2.0 | 6.0 | 0.13 | 0.24 | 0.13 | 96 | 1013.9 |
| 20260508003521 | 51 | 323 | 2.0 | 5.0 | 0.13 | 0.24 | 0.13 | 96 | 1014.0 |
| 20260508003041 | 51 | 313 | 1.0 | 6.0 | 0.13 | 0.24 | 0.13 | 96 | 1013.9 |
| 20260508003017 | 51 | 312 | 2.0 | 6.0 | 0.13 | 0.24 | 0.13 | 96 | 1014.1 |
| 20260508001934 | 52 | 292 | 2.0 | 6.0 | 0.13 | 0.23 | 0.13 | 96 | 1014.2 |
| 20260508001626 | 51 | 291 | 1.0 | 6.0 | 0.13 | 0.23 | 0.13 | 96 | 1014.0 |
| 20260508001422 | 52 | 321 | 2.0 | 6.0 | 0.13 | 0.23 | 0.13 | 96 | 1014.1 |
| 20260508000905 | 52 | 302 | 1.0 | 5.0 | 0.11 | 0.21 | 0.11 | 96 | 1014.1 |
| 20260508000404 | 52 | 301 | 0.0 | 4.0 | 0.10 | 0.20 | 0.10 | 96 | 1014.1 |
| 20260508000028 | 52 | 242 | 0.0 | 1.0 | 0.09 | 0.20 | 0.09 | 96 | 1013.9 |
| 20260507235849 | 52 | 242 | 0.0 | 1.0 | 0.09 | 0.19 | 0.09 | 96 | 1014.0 |
| 20260507235335 | 52 | 242 | 0.0 | 5.0 | 0.05 | 0.15 | 0.05 | 96 | 1014.1 |
| 20260507234819 | 52 | 242 | 2.0 | 6.0 | 0.02 | 0.12 | 0.02 | 96 | 1014.2 |
| 20260507234547 | 52 | 242 | 0.0 | 5.0 | 0.02 | 0.12 | 0.02 | 96 | 1014.0 |
| 20260507233750 | 52 | 302 | 2.0 | 7.0 | 0.01 | 0.11 | 0.01 | 96 | 1014.1 |
| 20260507233237 | 52 | 309 | 2.0 | 9.0 | 0.00 | 0.10 | 0.00 | 96 | 1014.1 |
| 20260507233013 | 52 | 309 | 1.0 | 9.0 | 0.00 | 0.10 | 0.00 | 96 | 1013.9 |
| 20260507232722 | 53 | 319 | 1.0 | 7.0 | 0.00 | 0.10 | 0.00 | 96 | 1014.1 |
| 20260507232206 | 53 | 336 | 1.0 | 6.0 | 0.00 | 0.10 | 0.00 | 96 | 1014.1 |
| 20260507231653 | 53 | 281 | 1.0 | 6.0 | 0.00 | 0.10 | 0.00 | 96 | 1014.1 |
| 20260507231533 | 52 | 281 | 1.0 | 5.0 | 0.00 | 0.10 | 0.00 | 96 | 1014.0 |
| 20260507231137 | 53 | 298 | 0.0 | 4.0 | 0.00 | 0.10 | 0.00 | 96 | 1014.2 |
| 20260507230044 | 53 | 315 | 0.0 | 6.0 | 0.00 | 0.10 | 0.00 | 96 | 1013.9 |
| 20260507225550 | 53 | 317 | 1.0 | 6.0 | 0.00 | 0.10 | 0.00 | 96 | 1014.0 |
| 20260507225034 | 53 | 309 | 1.0 | 7.0 | 0.00 | 0.10 | 0.00 | 96 | 1014.0 |
| 20260507224557 | 53 | 321 | 1.0 | 6.0 | 0.00 | 0.10 | 0.00 | 96 | 1013.8 |
| 20260507224514 | 53 | 321 | 1.0 | 7.0 | 0.00 | 0.10 | 0.00 | 96 | 1014.0 |
| 20260507223958 | 53 | 301 | 1.0 | 5.0 | 0.00 | 0.10 | 0.00 | 96 | 1014.1 |
| 20260507223444 | 54 | 297 | 0.0 | 5.0 | 0.00 | 0.10 | 0.00 | 96 | 1014.1 |
| 20260507223009 | 53 | 300 | 0.0 | 4.0 | 0.00 | 0.10 | 0.00 | 96 | 1013.8 |
| 20260507222928 | 54 | 300 | 1.0 | 4.0 | 0.00 | 0.10 | 0.00 | 96 | 1014.0 |
| 20260507222416 | 54 | 300 | 1.0 | 4.0 | 0.00 | 0.10 | 0.00 | 96 | 1014.0 |
| 20260507221901 | 54 | 317 | 0.0 | 4.0 | 0.00 | 0.10 | 0.00 | 96 | 1013.9 |
| 20260507221635 | 54 | 304 | 0.0 | 3.0 | 0.00 | 0.10 | 0.00 | 96 | 1013.7 |
| 20260507221350 | 54 | 307 | 0.0 | 3.0 | 0.01 | 0.10 | 0.00 | 96 | 1014.0 |
| 20260507220850 | 54 | 302 | 0.0 | 2.0 | 0.01 | 0.10 | 0.00 | 96 | 1014.0 |
| 20260507220337 | 55 | 316 | 0.0 | 3.0 | 0.01 | 0.10 | 0.00 | 96 | 1014.0 |
| 20260507220107 | 54 | 316 | 0.0 | 4.0 | 0.01 | 0.10 | 0.00 | 96 | 1013.7 |
| 20260507215819 | 55 | 317 | 0.0 | 4.0 | 0.01 | 0.10 | 0.10 | 96 | 1014.0 |
| 20260507214818 | 55 | 315 | 1.0 | 5.0 | 0.01 | 0.10 | 0.10 | 96 | 1013.7 |
| 20260507214537 | 54 | 300 | 0.0 | 4.0 | 0.01 | 0.10 | 0.10 | 96 | 1013.5 |
| 20260507214248 | 55 | 323 | 1.0 | 4.0 | 0.01 | 0.10 | 0.10 | 96 | 1013.6 |
| 20260507213002 | 55 | 304 | 3.0 | 8.0 | 0.01 | 0.10 | 0.10 | 96 | 1013.2 |
| 20260507212720 | 55 | 340 | 2.0 | 9.0 | 0.01 | 0.10 | 0.10 | 96 | 1013.4 |
| 20260507212208 | 55 | 309 | 2.0 | 9.0 | 0.01 | 0.10 | 0.10 | 96 | 1013.4 |
| 20260507211654 | 55 | 327 | 2.0 | 9.0 | 0.01 | 0.10 | 0.10 | 96 | 1013.4 |
| 20260507211536 | 55 | 329 | 2.0 | 9.0 | 0.01 | 0.10 | 0.10 | 95 | 1013.1 |
| 20260507211158 | 55 | 309 | 3.0 | 8.0 | 0.00 | 0.09 | 0.09 | 95 | 1013.3 |
| 20260507210639 | 55 | 327 | 3.0 | 10.0 | 0.00 | 0.09 | 0.09 | 95 | 1013.1 |
| 20260507210125 | 55 | 340 | 2.0 | 10.0 | 0.00 | 0.09 | 0.09 | 96 | 1013.0 |
| 20260507205059 | 55 | 308 | 1.0 | 4.0 | 0.00 | 0.09 | 0.09 | 95 | 1013.1 |
| 20260507204544 | 55 | 306 | 0.0 | 3.0 | 0.00 | 0.09 | 0.09 | 95 | 1013.0 |
| 20260507204519 | 55 | 306 | 0.0 | 3.0 | 0.00 | 0.09 | 0.09 | 95 | 1012.8 |
| 20260507204030 | 55 | 240 | 1.0 | 3.0 | 0.00 | 0.09 | 0.09 | 95 | 1013.0 |
| 20260507203039 | 55 | 242 | 1.0 | 3.0 | 0.00 | 0.09 | 0.09 | 95 | 1012.8 |
| 20260507203001 | 55 | 301 | 0.0 | 3.0 | 0.00 | 0.09 | 0.09 | 95 | 1013.1 |
| 20260507202445 | 55 | 342 | 0.0 | 3.0 | 0.00 | 0.09 | 0.09 | 95 | 1013.0 |
| 20260507201931 | 55 | 343 | 0.0 | 5.0 | 0.00 | 0.09 | 0.09 | 95 | 1012.9 |
| 20260507201600 | 55 | 305 | 0.0 | 5.0 | 0.00 | 0.09 | 0.09 | 95 | 1012.7 |
| 20260507201415 | 56 | 305 | 0.0 | 5.0 | 0.00 | 0.09 | 0.09 | 94 | 1012.9 |
| 20260507200901 | 56 | 302 | 0.0 | 3.0 | 0.00 | 0.09 | 0.09 | 95 | 1013.1 |
| 20260507200346 | 56 | 254 | 1.0 | 4.0 | 0.00 | 0.09 | 0.09 | 94 | 1013.1 |
| 20260507200016 | 55 | 254 | 0.0 | 7.0 | 0.00 | 0.09 | 0.09 | 94 | 1013.0 |
| 20260507195832 | 56 | 247 | 3.0 | 11.0 | 0.00 | 0.09 | 0.09 | 94 | 1013.2 |
| 20260507195320 | 56 | 251 | 4.0 | 11.0 | 0.00 | 0.09 | 0.09 | 94 | 1013.1 |
| 20260507194807 | 56 | 245 | 1.0 | 8.0 | 0.01 | 0.09 | 0.09 | 94 | 1013.0 |
| 20260507194535 | 56 | 250 | 1.0 | 5.0 | 0.01 | 0.09 | 0.09 | 93 | 1012.7 |
| 20260507194251 | 57 | 249 | 0.0 | 3.0 | 0.02 | 0.09 | 0.09 | 94 | 1012.9 |
| 20260507193738 | 57 | 346 | 0.0 | 2.0 | 0.03 | 0.09 | 0.09 | 93 | 1012.8 |
| 20260507193228 | 57 | 355 | 0.0 | 2.0 | 0.05 | 0.09 | 0.09 | 93 | 1012.6 |
| 20260507193001 | 56 | 355 | 0.0 | 3.0 | 0.07 | 0.09 | 0.09 | 93 | 1012.3 |
| 20260507192720 | 57 | 355 | 1.0 | 4.0 | 0.09 | 0.09 | 0.09 | 93 | 1012.5 |
| 20260507192213 | 57 | 355 | 0.0 | 4.0 | 0.09 | 0.09 | 0.09 | 92 | 1012.5 |
| 20260507191702 | 57 | 304 | 0.0 | 5.0 | 0.09 | 0.09 | 0.09 | 92 | 1012.4 |
| 20260507191638 | 56 | 308 | 0.0 | 2.0 | 0.09 | 0.09 | 0.09 | 92 | 1012.2 |
| 20260507191153 | 57 | 304 | 1.0 | 5.0 | 0.09 | 0.09 | 0.09 | 92 | 1012.2 |
| 20260507190650 | 57 | 316 | 1.0 | 5.0 | 0.09 | 0.09 | 0.09 | 91 | 1012.1 |
| 20260507190150 | 57 | 329 | 1.0 | 4.0 | 0.09 | 0.09 | 0.09 | 91 | 1012.2 |
| 20260507190025 | 57 | 337 | 1.0 | 4.0 | 0.09 | 0.09 | 0.09 | 90 | 1012.0 |
| 20260507185644 | 58 | 309 | 0.0 | 3.0 | 0.09 | 0.09 | 0.09 | 90 | 1012.2 |
| 20260507185137 | 58 | 307 | 1.0 | 4.0 | 0.09 | 0.09 | 0.09 | 89 | 1012.1 |
| 20260507184631 | 58 | 11 | 1.0 | 11.0 | 0.08 | 0.08 | 0.09 | 87 | 1012.4 |
| 20260507184505 | 58 | 11 | 0.0 | 11.0 | 0.08 | 0.08 | 0.08 | 87 | 1012.1 |
| 20260507184119 | 59 | 298 | 1.0 | 11.0 | 0.07 | 0.07 | 0.07 | 85 | 1012.4 |
| 20260507183613 | 59 | 324 | 1.0 | 5.0 | 0.06 | 0.06 | 0.06 | 83 | 1012.3 |
| 20260507183107 | 60 | 307 | 1.0 | 5.0 | 0.02 | 0.02 | 0.03 | 81 | 1012.2 |
| 20260507183044 | 60 | 307 | 0.0 | 5.0 | 0.03 | 0.03 | 0.03 | 81 | 1011.9 |
| 20260507182554 | 61 | 307 | 1.0 | 4.0 | 0.00 | 0.00 | 0.00 | 79 | 1012.0 |
| 20260507182048 | 61 | 261 | 1.0 | 8.0 | 0.00 | 0.00 | 0.00 | 78 | 1012.0 |
| 20260507181619 | 61 | 302 | 1.0 | 8.0 | 0.00 | 0.00 | 0.00 | 79 | 1011.5 |
| 20260507181548 | 61 | 285 | 1.0 | 8.0 | 0.00 | 0.00 | 0.00 | 78 | 1011.8 |
| 20260507181048 | 61 | 313 | 3.0 | 10.0 | 0.00 | 0.00 | 0.00 | 78 | 1011.5 |
| 20260507180549 | 61 | 333 | 3.0 | 10.0 | 0.00 | 0.00 | 0.00 | 77 | 1011.3 |
| 20260507180119 | 61 | 13 | 3.0 | 10.0 | 0.00 | 0.00 | 0.00 | 74 | 1010.8 |
| 20260507180053 | 61 | 304 | 3.0 | 10.0 | 0.00 | 0.00 | 0.00 | 74 | 1011.1 |
| 20260507175537 | 61 | 5 | 3.0 | 10.0 | 0.00 | 0.00 | 0.00 | 73 | 1011.1 |
| 20260507175031 | 62 | 289 | 1.0 | 7.0 | 0.00 | 0.00 | 0.00 | 71 | 1011.0 |
| 20260507174556 | 61 | 330 | 0.0 | 11.0 | 0.00 | 0.00 | 0.00 | 71 | 1010.7 |
| 20260507174515 | 62 | 330 | 2.0 | 11.0 | 0.00 | 0.00 | 0.00 | 70 | 1010.9 |
| 20260507174004 | 62 | 301 | 3.0 | 11.0 | 0.00 | 0.00 | 0.00 | 69 | 1010.7 |
| 20260507173459 | 62 | 318 | 2.0 | 10.0 | 0.00 | 0.00 | 0.00 | 68 | 1010.6 |
| 20260507173135 | 62 | 304 | 2.0 | 8.0 | 0.00 | 0.00 | 0.00 | 68 | 1010.3 |
| 20260507172951 | 63 | 288 | 1.0 | 5.0 | 0.00 | 0.00 | 0.00 | 68 | 1010.5 |
| 20260507172448 | 63 | 316 | 1.0 | 7.0 | 0.00 | 0.00 | 0.00 | 67 | 1010.5 |
| 20260507171937 | 63 | 312 | 1.0 | 7.0 | 0.00 | 0.00 | 0.00 | 67 | 1010.4 |
| 20260507171513 | 63 | 331 | 0.0 | 5.0 | 0.00 | 0.00 | 0.00 | 67 | 1010.0 |
| 20260507170932 | 64 | 309 | 1.0 | 10.0 | 0.00 | 0.00 | 0.00 | 67 | 1010.3 |
| 20260507170410 | 64 | 291 | 1.0 | 10.0 | 0.00 | 0.00 | 0.00 | 65 | 1010.2 |
| 20260507170047 | 64 | 288 | 2.0 | 8.0 | 0.00 | 0.00 | 0.00 | 63 | 1009.8 |
| 20260507165902 | 65 | 310 | 1.0 | 8.0 | 0.00 | 0.00 | 0.00 | 62 | 1010.1 |
| 20260507165351 | 65 | 275 | 1.0 | 8.0 | 0.00 | 0.00 | 0.00 | 60 | 1010.0 |
| 20260507164837 | 65 | 246 | 1.0 | 6.0 | 0.00 | 0.00 | 0.00 | 59 | 1010.0 |
| 20260507164502 | 65 | 259 | 1.0 | 10.0 | 0.00 | 0.00 | 0.00 | 59 | 1009.6 |
| 20260507164325 | 66 | 257 | 3.0 | 13.0 | 0.00 | 0.00 | 0.00 | 60 | 1009.9 |
| 20260507163811 | 66 | 251 | 4.0 | 13.0 | 0.00 | 0.00 | 0.00 | 59 | 1009.9 |
| 20260507163259 | 67 | 243 | 5.0 | 10.0 | 0.00 | 0.00 | 0.00 | 63 | 1009.7 |
| 20260507163027 | 66 | 239 | 4.0 | 10.0 | 0.00 | 0.00 | 0.00 | 63 | 1009.2 |
| 20260507162748 | 67 | 232 | 5.0 | 10.0 | 0.00 | 0.00 | 0.00 | 62 | 1009.6 |
| 20260507162235 | 67 | 222 | 4.0 | 8.0 | 0.00 | 0.00 | 0.00 | 62 | 1009.5 |
| 20260507161720 | 67 | 222 | 3.0 | 8.0 | 0.00 | 0.00 | 0.00 | 62 | 1009.5 |
| 20260507161556 | 66 | 194 | 2.0 | 8.0 | 0.00 | 0.00 | 0.00 | 62 | 1009.2 |
| 20260507161211 | 67 | 255 | 3.0 | 8.0 | 0.00 | 0.00 | 0.00 | 61 | 1009.5 |
| 20260507160651 | 67 | 223 | 4.0 | 9.0 | 0.00 | 0.00 | 0.00 | 61 | 1009.4 |
| 20260507160130 | 67 | 275 | 5.0 | 11.0 | 0.00 | 0.00 | 0.00 | 61 | 1009.5 |
| 20260507160007 | 67 | 174 | 3.0 | 11.0 | 0.00 | 0.00 | 0.00 | 61 | 1009.1 |
| 20260507155107 | 67 | 212 | 5.0 | 11.0 | 0.00 | 0.00 | 0.00 | 61 | 1009.6 |
| 20260507154558 | 67 | 198 | 5.0 | 10.0 | 0.00 | 0.00 | 0.00 | 61 | 1009.5 |
| 20260507154532 | 67 | 198 | 3.0 | 10.0 | 0.00 | 0.00 | 0.00 | 60 | 1009.1 |
| 20260507154044 | 68 | 195 | 5.0 | 10.0 | 0.00 | 0.00 | 0.00 | 61 | 1009.5 |
| 20260507153533 | 68 | 175 | 5.0 | 14.0 | 0.00 | 0.00 | 0.00 | 60 | 1009.6 |
| 20260507153200 | 67 | 265 | 4.0 | 14.0 | 0.00 | 0.00 | 0.00 | 60 | 1009.2 |
| 20260507152007 | 68 | 180 | 5.0 | 12.0 | 0.00 | 0.00 | 0.00 | 61 | 1009.6 |
| 20260507151532 | 68 | 208 | 5.0 | 12.0 | 0.00 | 0.00 | 0.00 | 61 | 1009.1 |
| 20260507151454 | 68 | 283 | 4.0 | 12.0 | 0.00 | 0.00 | 0.00 | 61 | 1009.5 |
| 20260507150945 | 68 | 232 | 4.0 | 12.0 | 0.00 | 0.00 | 0.00 | 61 | 1009.4 |
| 20260507150430 | 68 | 202 | 4.0 | 7.0 | 0.00 | 0.00 | 0.00 | 61 | 1009.4 |
| 20260507150056 | 68 | 259 | 3.0 | 10.0 | 0.00 | 0.00 | 0.00 | 62 | 1009.0 |
| 20260507145916 | 69 | 165 | 4.0 | 10.0 | 0.00 | 0.00 | 0.00 | 61 | 1009.4 |
| 20260507145402 | 69 | 243 | 5.0 | 11.0 | 0.00 | 0.00 | 0.00 | 60 | 1009.4 |
| 20260507144851 | 69 | 223 | 5.0 | 11.0 | 0.00 | 0.00 | 0.00 | 60 | 1009.3 |
| 20260507144520 | 69 | 246 | 4.0 | 9.0 | 0.00 | 0.00 | 0.00 | 60 | 1009.0 |
| 20260507144341 | 69 | 217 | 5.0 | 10.0 | 0.00 | 0.00 | 0.00 | 60 | 1009.4 |
| 20260507143824 | 69 | 211 | 4.0 | 10.0 | 0.00 | 0.00 | 0.00 | 59 | 1009.4 |
| 20260507143314 | 69 | 203 | 5.0 | 11.0 | 0.00 | 0.00 | 0.00 | 60 | 1009.3 |
| 20260507143046 | 69 | 246 | 3.0 | 11.0 | 0.00 | 0.00 | 0.00 | 60 | 1009.0 |
| 20260507142803 | 69 | 198 | 5.0 | 11.0 | 0.00 | 0.00 | 0.00 | 60 | 1009.4 |
| 20260507142249 | 69 | 177 | 5.0 | 11.0 | 0.00 | 0.00 | 0.00 | 60 | 1009.4 |
| 20260507141610 | 69 | 219 | 7.0 | 12.0 | 0.00 | 0.00 | 0.00 | 59 | 1008.9 |
| 20260507140706 | 69 | 261 | 5.0 | 11.0 | 0.00 | 0.00 | 0.00 | 58 | 1009.4 |
| 20260507140150 | 69 | 223 | 6.0 | 11.0 | 0.00 | 0.00 | 0.00 | 57 | 1009.3 |
| 20260507140127 | 69 | 205 | 5.0 | 10.0 | 0.00 | 0.00 | 0.00 | 57 | 1008.9 |
| 20260507135130 | 70 | 196 | 6.0 | 12.0 | 0.00 | 0.00 | 0.00 | 56 | 1009.3 |
| 20260507134615 | 70 | 257 | 6.0 | 12.0 | 0.00 | 0.00 | 0.00 | 58 | 1009.3 |
| 20260507134553 | 69 | 257 | 5.0 | 12.0 | 0.00 | 0.00 | 0.00 | 59 | 1008.9 |
| 20260507134101 | 69 | 222 | 5.0 | 12.0 | 0.00 | 0.00 | 0.00 | 58 | 1009.3 |
| 20260507133544 | 69 | 152 | 4.0 | 12.0 | 0.00 | 0.00 | 0.00 | 59 | 1009.3 |
| 20260507133030 | 69 | 148 | 5.0 | 10.0 | 0.00 | 0.00 | 0.00 | 59 | 1009.4 |
| 20260507133004 | 68 | 190 | 2.0 | 9.0 | 0.00 | 0.00 | 0.00 | 59 | 1009.0 |
| 20260507132515 | 69 | 245 | 3.0 | 10.0 | 0.00 | 0.00 | 0.00 | 58 | 1009.5 |
| 20260507131954 | 69 | 241 | 2.0 | 10.0 | 0.00 | 0.00 | 0.00 | 58 | 1009.5 |
| 20260507131622 | 69 | 235 | 0.0 | 5.0 | 0.00 | 0.00 | 0.00 | 59 | 1009.0 |
| 20260507131443 | 69 | 235 | 3.0 | 7.0 | 0.00 | 0.00 | 0.00 | 59 | 1009.5 |
| 20260507130930 | 69 | 273 | 4.0 | 10.0 | 0.00 | 0.00 | 0.00 | 59 | 1009.6 |
| 20260507130417 | 69 | 211 | 4.0 | 10.0 | 0.00 | 0.00 | 0.00 | 58 | 1009.6 |
| 20260507130053 | 69 | 228 | 3.0 | 8.0 | 0.00 | 0.00 | 0.00 | 58 | 1009.1 |
| 20260507125903 | 69 | 219 | 4.0 | 10.0 | 0.00 | 0.00 | 0.00 | 57 | 1009.6 |
| 20260507125347 | 69 | 238 | 4.0 | 10.0 | 0.00 | 0.00 | 0.00 | 57 | 1009.5 |
| 20260507124559 | 69 | 227 | 2.0 | 11.0 | 0.00 | 0.00 | 0.00 | 58 | 1009.1 |
| 20260507124316 | 69 | 232 | 4.0 | 12.0 | 0.00 | 0.00 | 0.00 | 57 | 1009.6 |
| 20260507123802 | 69 | 175 | 4.0 | 9.0 | 0.00 | 0.00 | 0.00 | 58 | 1009.6 |
| 20260507123015 | 68 | 250 | 5.0 | 11.0 | 0.00 | 0.00 | 0.00 | 59 | 1009.1 |
| 20260507122732 | 68 | 231 | 5.0 | 11.0 | 0.00 | 0.00 | 0.00 | 60 | 1009.6 |
| 20260507122216 | 68 | 242 | 5.0 | 14.0 | 0.00 | 0.00 | 0.00 | 60 | 1009.6 |
| 20260507121702 | 68 | 244 | 5.0 | 14.0 | 0.00 | 0.00 | 0.00 | 61 | 1009.6 |
| 20260507121534 | 68 | 238 | 2.0 | 14.0 | 0.00 | 0.00 | 0.00 | 61 | 1009.2 |
| 20260507121149 | 68 | 242 | 6.0 | 16.0 | 0.00 | 0.00 | 0.00 | 61 | 1009.7 |
| 20260507120650 | 68 | 254 | 4.0 | 16.0 | 0.00 | 0.00 | 0.00 | 61 | 1009.7 |
| 20260507120137 | 69 | 245 | 4.0 | 11.0 | 0.00 | 0.00 | 0.00 | 62 | 1009.6 |
| 20260507120023 | 68 | 277 | 1.0 | 10.0 | 0.00 | 0.00 | 0.00 | 62 | 1009.2 |
| 20260507115623 | 68 | 250 | 4.0 | 11.0 | 0.00 | 0.00 | 0.00 | 61 | 1009.7 |
| 20260507115109 | 69 | 253 | 3.0 | 9.0 | 0.00 | 0.00 | 0.00 | 61 | 1009.7 |
| 20260507114556 | 69 | 249 | 3.0 | 11.0 | 0.00 | 0.00 | 0.00 | 62 | 1009.6 |
| 20260507114533 | 68 | 249 | 1.0 | 11.0 | 0.00 | 0.00 | 0.00 | 63 | 1009.2 |
| 20260507114044 | 69 | 255 | 3.0 | 11.0 | 0.00 | 0.00 | 0.00 | 63 | 1009.6 |
| 20260507113541 | 69 | 302 | 2.0 | 10.0 | 0.00 | 0.00 | 0.00 | 63 | 1009.6 |
| 20260507113010 | 68 | 227 | 1.0 | 9.0 | 0.00 | 0.00 | 0.00 | 65 | 1009.1 |
| 20260507112519 | 68 | 202 | 2.0 | 8.0 | 0.00 | 0.00 | 0.00 | 66 | 1009.6 |
| 20260507112017 | 68 | 224 | 3.0 | 9.0 | 0.00 | 0.00 | 0.00 | 65 | 1009.6 |
| 20260507111550 | 68 | 242 | 1.0 | 9.0 | 0.00 | 0.00 | 0.00 | 66 | 1009.2 |
| 20260507111513 | 68 | 200 | 4.0 | 11.0 | 0.00 | 0.00 | 0.00 | 65 | 1009.6 |
| 20260507111019 | 68 | 111 | 4.0 | 11.0 | 0.00 | 0.00 | 0.00 | 66 | 1009.6 |
| 20260507110026 | 67 | 248 | 4.0 | 9.0 | 0.00 | 0.00 | 0.00 | 67 | 1009.1 |
| 20260507105948 | 68 | 215 | 6.0 | 9.0 | 0.00 | 0.00 | 0.00 | 67 | 1009.6 |
| 20260507105436 | 68 | 238 | 5.0 | 10.0 | 0.00 | 0.00 | 0.00 | 67 | 1009.5 |
| 20260507104926 | 68 | 216 | 4.0 | 8.0 | 0.00 | 0.00 | 0.00 | 67 | 1009.6 |
| 20260507103911 | 67 | 227 | 5.0 | 8.0 | 0.00 | 0.00 | 0.00 | 67 | 1009.6 |
| 20260507103408 | 67 | 222 | 4.0 | 11.0 | 0.00 | 0.00 | 0.00 | 67 | 1009.6 |
| 20260507103052 | 67 | 194 | 5.0 | 11.0 | 0.00 | 0.00 | 0.00 | 66 | 1009.1 |
| 20260507102910 | 68 | 141 | 3.0 | 9.0 | 0.00 | 0.00 | 0.00 | 66 | 1009.5 |
| 20260507102401 | 68 | 242 | 1.0 | 8.0 | 0.00 | 0.00 | 0.00 | 66 | 1009.5 |
| 20260507101858 | 68 | 250 | 2.0 | 8.0 | 0.00 | 0.00 | 0.00 | 66 | 1009.5 |
| 20260507101527 | 67 | 299 | 0.0 | 9.0 | 0.00 | 0.00 | 0.00 | 67 | 1009.0 |
| 20260507101345 | 68 | 227 | 2.0 | 9.0 | 0.00 | 0.00 | 0.00 | 66 | 1009.4 |
| 20260507100842 | 67 | 288 | 2.0 | 9.0 | 0.00 | 0.00 | 0.00 | 67 | 1009.4 |
| 20260507100342 | 67 | 227 | 4.0 | 12.0 | 0.00 | 0.00 | 0.00 | 67 | 1009.4 |
| 20260507100010 | 67 | 227 | 3.0 | 12.0 | 0.00 | 0.00 | 0.00 | 66 | 1008.9 |
| 20260507095322 | 68 | 226 | 3.0 | 8.0 | 0.00 | 0.00 | 0.00 | 66 | 1009.4 |
| 20260507094546 | 67 | 246 | 3.0 | 7.0 | 0.00 | 0.00 | 0.00 | 66 | 1008.9 |
| 20260507094300 | 67 | 171 | 4.0 | 11.0 | 0.00 | 0.00 | 0.00 | 68 | 1009.3 |
| 20260507093759 | 67 | 234 | 3.0 | 11.0 | 0.00 | 0.00 | 0.00 | 68 | 1009.3 |
| 20260507093248 | 66 | 298 | 3.0 | 8.0 | 0.00 | 0.00 | 0.00 | 70 | 1009.3 |
| 20260507093017 | 66 | 224 | 1.0 | 8.0 | 0.00 | 0.00 | 0.00 | 70 | 1008.8 |
| 20260507092737 | 66 | 244 | 3.0 | 8.0 | 0.00 | 0.00 | 0.00 | 70 | 1009.3 |
| 20260507092228 | 67 | 255 | 4.0 | 11.0 | 0.00 | 0.00 | 0.00 | 69 | 1009.3 |
| 20260507091726 | 67 | 242 | 4.0 | 11.0 | 0.00 | 0.00 | 0.00 | 70 | 1009.1 |
| 20260507091505 | 66 | 247 | 6.0 | 11.0 | 0.00 | 0.00 | 0.00 | 69 | 1008.8 |
| 20260507091222 | 67 | 209 | 3.0 | 11.0 | 0.00 | 0.00 | 0.00 | 69 | 1009.1 |
| 20260507090724 | 67 | 217 | 3.0 | 9.0 | 0.00 | 0.00 | 0.00 | 69 | 1009.0 |
| 20260507090158 | 66 | 269 | 4.0 | 9.0 | 0.00 | 0.00 | 0.00 | 71 | 1009.0 |
| 20260507090033 | 66 | 244 | 4.0 | 8.0 | 0.00 | 0.00 | 0.00 | 71 | 1008.6 |
| 20260507085643 | 66 | 192 | 4.0 | 11.0 | 0.00 | 0.00 | 0.00 | 71 | 1008.9 |
| 20260507085134 | 66 | 235 | 5.0 | 11.0 | 0.00 | 0.00 | 0.00 | 71 | 1008.9 |
| 20260507084621 | 65 | 266 | 4.0 | 10.0 | 0.00 | 0.00 | 0.00 | 73 | 1008.8 |
| 20260507084558 | 65 | 266 | 3.0 | 10.0 | 0.00 | 0.00 | 0.00 | 71 | 1008.4 |
| 20260507084109 | 65 | 242 | 4.0 | 10.0 | 0.00 | 0.00 | 0.00 | 73 | 1008.8 |
| 20260507083557 | 65 | 215 | 5.0 | 9.0 | 0.00 | 0.00 | 0.00 | 73 | 1008.7 |
| 20260507083045 | 65 | 205 | 4.0 | 8.0 | 0.00 | 0.00 | 0.00 | 74 | 1008.7 |
| 20260507083026 | 64 | 203 | 5.0 | 8.0 | 0.00 | 0.00 | 0.00 | 74 | 1008.3 |
| 20260507082542 | 64 | 286 | 4.0 | 10.0 | 0.00 | 0.00 | 0.00 | 76 | 1008.7 |
| 20260507082029 | 64 | 242 | 4.0 | 10.0 | 0.00 | 0.00 | 0.00 | 75 | 1008.7 |
| 20260507081602 | 64 | 248 | 5.0 | 9.0 | 0.00 | 0.00 | 0.00 | 75 | 1008.4 |
| 20260507081518 | 64 | 235 | 4.0 | 10.0 | 0.00 | 0.00 | 0.00 | 75 | 1008.7 |
| 20260507081006 | 64 | 242 | 5.0 | 11.0 | 0.00 | 0.00 | 0.00 | 75 | 1008.7 |
| 20260507080508 | 64 | 256 | 4.0 | 11.0 | 0.00 | 0.00 | 0.00 | 75 | 1008.7 |
| 20260507080033 | 64 | 241 | 4.0 | 11.0 | 0.00 | 0.00 | 0.00 | 75 | 1008.2 |
| 20260507075956 | 64 | 254 | 4.0 | 11.0 | 0.00 | 0.00 | 0.00 | 76 | 1008.6 |
| 20260507075445 | 64 | 268 | 5.0 | 12.0 | 0.00 | 0.00 | 0.00 | 76 | 1008.6 |
| 20260507074932 | 63 | 203 | 5.0 | 12.0 | 0.00 | 0.00 | 0.00 | 78 | 1008.6 |
| 20260507074610 | 62 | 234 | 5.0 | 12.0 | 0.00 | 0.00 | 0.00 | 78 | 1008.2 |
| 20260507074420 | 63 | 266 | 5.0 | 11.0 | 0.00 | 0.00 | 0.00 | 79 | 1008.6 |
| 20260507073909 | 62 | 246 | 6.0 | 12.0 | 0.00 | 0.00 | 0.00 | 79 | 1008.5 |
| 20260507073023 | 62 | 277 | 5.0 | 12.0 | 0.00 | 0.00 | 0.00 | 79 | 1008.1 |
| 20260507072332 | 62 | 291 | 5.0 | 14.0 | 0.00 | 0.00 | 0.00 | 80 | 1008.4 |
| 20260507071818 | 62 | 225 | 5.0 | 14.0 | 0.00 | 0.00 | 0.00 | 80 | 1008.3 |
| 20260507071547 | 62 | 199 | 4.0 | 11.0 | 0.00 | 0.00 | 0.00 | 81 | 1007.9 |
| 20260507071305 | 62 | 240 | 4.0 | 9.0 | 0.00 | 0.00 | 0.00 | 81 | 1008.2 |
| 20260507070754 | 62 | 236 | 4.0 | 11.0 | 0.00 | 0.00 | 0.00 | 82 | 1008.2 |
| 20260507070012 | 61 | 248 | 5.0 | 10.0 | 0.00 | 0.00 | 0.00 | 81 | 1007.9 |
| 20260507065728 | 62 | 218 | 3.0 | 10.0 | 0.00 | 0.00 | 0.00 | 82 | 1008.1 |
| 20260507064531 | 60 | 244 | 5.0 | 8.0 | 0.00 | 0.00 | 0.00 | 83 | 1007.6 |
| 20260507064144 | 60 | 217 | 5.0 | 11.0 | 0.00 | 0.00 | 0.00 | 83 | 1008.0 |
| 20260507063630 | 60 | 237 | 5.0 | 11.0 | 0.00 | 0.00 | 0.00 | 83 | 1008.0 |
| 20260507063118 | 60 | 200 | 4.0 | 11.0 | 0.00 | 0.00 | 0.00 | 83 | 1007.9 |
| 20260507063051 | 60 | 191 | 6.0 | 11.0 | 0.00 | 0.00 | 0.00 | 83 | 1007.6 |
| 20260507062607 | 60 | 190 | 4.0 | 9.0 | 0.00 | 0.00 | 0.00 | 84 | 1007.9 |
| 20260507062054 | 60 | 214 | 4.0 | 10.0 | 0.00 | 0.00 | 0.00 | 84 | 1007.9 |
| 20260507061542 | 60 | 190 | 3.0 | 10.0 | 0.00 | 0.00 | 0.00 | 84 | 1007.9 |
| 20260507061515 | 59 | 186 | 2.0 | 10.0 | 0.00 | 0.00 | 0.00 | 84 | 1007.5 |
| 20260507061039 | 60 | 258 | 3.0 | 9.0 | 0.00 | 0.00 | 0.00 | 84 | 1007.9 |
| 20260507060529 | 60 | 248 | 3.0 | 8.0 | 0.00 | 0.00 | 0.00 | 85 | 1007.8 |
| 20260507060043 | 59 | 257 | 3.0 | 8.0 | 0.00 | 0.00 | 0.00 | 85 | 1007.4 |
| 20260507060007 | 60 | 230 | 2.0 | 8.0 | 0.00 | 0.00 | 0.00 | 85 | 1007.8 |
| 20260507055452 | 60 | 232 | 2.0 | 7.0 | 0.00 | 0.00 | 0.00 | 86 | 1007.8 |
| 20260507054938 | 60 | 231 | 3.0 | 7.0 | 0.00 | 0.00 | 0.00 | 86 | 1007.7 |
| 20260507054503 | 59 | 202 | 3.0 | 7.0 | 0.00 | 0.00 | 0.00 | 87 | 1007.2 |
| 20260507053911 | 59 | 248 | 2.0 | 7.0 | 0.00 | 0.00 | 0.00 | 88 | 1007.5 |
| 20260507053025 | 58 | 239 | 0.0 | 3.0 | 0.00 | 0.00 | 0.00 | 90 | 1006.9 |
| 20260507052845 | 58 | 239 | 1.0 | 3.0 | 0.00 | 0.00 | 0.00 | 90 | 1007.3 |
| 20260507051810 | 57 | 205 | 0.0 | 4.0 | 0.00 | 0.00 | 0.00 | 91 | 1007.2 |
| 20260507051539 | 57 | 226 | 0.0 | 3.0 | 0.00 | 0.00 | 0.00 | 91 | 1006.9 |
| 20260507050743 | 57 | 236 | 1.0 | 4.0 | 0.00 | 0.00 | 0.00 | 91 | 1007.2 |
| 20260507050229 | 57 | 237 | 2.0 | 4.0 | 0.00 | 0.00 | 0.00 | 91 | 1007.2 |
| 20260507050100 | 56 | 237 | 0.0 | 4.0 | 0.00 | 0.00 | 0.00 | 91 | 1006.8 |
| 20260507045713 | 57 | 242 | 1.0 | 4.0 | 0.00 | 0.00 | 0.00 | 92 | 1007.2 |
| 20260507044646 | 57 | 242 | 0.0 | 1.0 | 0.00 | 0.00 | 0.00 | 92 | 1007.1 |
| 20260507044620 | 56 | 242 | 0.0 | 1.0 | 0.00 | 0.00 | 0.00 | 92 | 1006.6 |
| 20260507044133 | 57 | 242 | 0.0 | 3.0 | 0.00 | 0.00 | 0.00 | 92 | 1006.9 |
| 20260507043619 | 57 | 240 | 0.0 | 4.0 | 0.00 | 0.00 | 0.00 | 92 | 1006.9 |
| 20260507043041 | 56 | 244 | 0.0 | 4.0 | 0.00 | 0.00 | 0.00 | 92 | 1006.4 |
| 20260507042549 | 56 | 243 | 1.0 | 4.0 | 0.00 | 0.00 | 0.00 | 92 | 1006.8 |
| 20260507042036 | 56 | 254 | 1.0 | 3.0 | 0.00 | 0.00 | 0.00 | 92 | 1006.7 |
| 20260507041603 | 56 | 254 | 0.0 | 2.0 | 0.00 | 0.00 | 0.00 | 92 | 1006.2 |
| 20260507041520 | 56 | 254 | 0.0 | 2.0 | 0.00 | 0.00 | 0.00 | 92 | 1006.7 |
| 20260507041006 | 56 | 252 | 0.0 | 3.0 | 0.00 | 0.00 | 0.00 | 92 | 1006.5 |
| 20260507040449 | 56 | 253 | 0.0 | 3.0 | 0.00 | 0.00 | 0.00 | 92 | 1006.4 |
| 20260507040013 | 56 | 305 | 0.0 | 0.0 | 0.00 | 0.00 | 0.00 | 92 | 1005.9 |
| 20260507035935 | 56 | 305 | 0.0 | 0.0 | 0.00 | 0.00 | 0.00 | 92 | 1006.3 |
| 20260507035421 | 56 | 305 | 0.0 | 0.0 | 0.00 | 0.00 | 0.00 | 92 | 1006.3 |
| 20260507034907 | 56 | 305 | 0.0 | 1.0 | 0.00 | 0.00 | 0.00 | 92 | 1006.4 |
| 20260507034533 | 55 | 305 | 0.0 | 1.0 | 0.00 | 0.00 | 0.00 | 92 | 1005.9 |
| 20260507034352 | 56 | 305 | 0.0 | 3.0 | 0.00 | 0.00 | 0.00 | 92 | 1006.3 |
| 20260507033842 | 56 | 245 | 0.0 | 3.0 | 0.00 | 0.00 | 0.00 | 92 | 1006.2 |
| 20260507033106 | 55 | 242 | 0.0 | 2.0 | 0.00 | 0.00 | 0.00 | 92 | 1005.8 |
| 20260507032306 | 56 | 242 | 0.0 | 3.0 | 0.00 | 0.00 | 0.00 | 92 | 1006.2 |
| 20260507031754 | 55 | 242 | 0.0 | 3.0 | 0.00 | 0.00 | 0.00 | 92 | 1006.1 |
| 20260507031527 | 55 | 248 | 0.0 | 3.0 | 0.00 | 0.00 | 0.00 | 92 | 1005.7 |
| 20260507031245 | 55 | 248 | 0.0 | 3.0 | 0.00 | 0.00 | 0.00 | 92 | 1006.2 |
| 20260507030740 | 55 | 247 | 0.0 | 3.0 | 0.00 | 0.00 | 0.00 | 92 | 1006.1 |
| 20260507030009 | 55 | 246 | 0.0 | 4.0 | 0.00 | 0.00 | 0.00 | 92 | 1005.7 |
| 20260507025729 | 55 | 245 | 1.0 | 4.0 | 0.00 | 0.00 | 0.00 | 93 | 1006.0 |
| 20260507025223 | 55 | 244 | 1.0 | 5.0 | 0.00 | 0.00 | 0.00 | 93 | 1005.9 |
| 20260507024712 | 55 | 257 | 0.0 | 5.0 | 0.00 | 0.00 | 0.00 | 93 | 1005.9 |
| 20260507024546 | 54 | 255 | 1.0 | 4.0 | 0.00 | 0.00 | 0.00 | 92 | 1005.5 |
| 20260507024200 | 54 | 234 | 0.0 | 1.0 | 0.00 | 0.00 | 0.00 | 92 | 1005.8 |
| 20260507023650 | 54 | 234 | 0.0 | 0.0 | 0.00 | 0.00 | 0.00 | 92 | 1005.6 |